| time (UTC) | temp F | wind direction | speed knots | gust knots | rain 1hr in | rain 24hr in | rain mn in | humidity % | barometer mb |
| 20260506094518 | 47 | 72 | 1.7 | 9.6 | 0.00 | 0.01 | 0.00 | 69 | 1016.4 |
| 20260506093017 | 47 | 113 | 1.7 | 8.7 | 0.00 | 0.01 | 0.00 | 72 | 1016.4 |
| 20260506091516 | 47 | 14 | 1.7 | 7.8 | 0.00 | 0.01 | 0.00 | 72 | 1016.2 |
| 20260506090015 | 47 | 103 | 2.6 | 8.7 | 0.00 | 0.01 | 0.00 | 71 | 1016.3 |
| 20260506084514 | 48 | 181 | 3.5 | 8.7 | 0.00 | 0.01 | 0.00 | 72 | 1016.2 |
| 20260506083013 | 48 | 89 | 2.6 | 6.1 | 0.00 | 0.01 | 0.00 | 72 | 1016.1 |
| 20260506081510 | 47 | 11 | 2.6 | 7.0 | 0.00 | 0.01 | 0.00 | 76 | 1016.1 |
| 20260506073009 | 45 | 44 | 1.7 | 7.0 | 0.00 | 0.01 | 0.00 | 81 | 1015.8 |
| 20260506071508 | 44 | 15 | 2.6 | 7.0 | 0.00 | 0.01 | 0.00 | 81 | 1015.7 |
| 20260506061513 | 47 | 100 | 2.6 | 7.8 | 0.00 | 0.01 | 0.00 | 76 | 1015.2 |
| 20260506044551 | 44 | 307 | 2.6 | 7.0 | 0.00 | 0.01 | 0.00 | 81 | 1015.0 |
| 20260506043045 | 43 | 193 | 2.6 | 8.7 | 0.00 | 0.01 | 0.00 | 82 | 1015.2 |
| 20260506041548 | 43 | 347 | 2.6 | 7.8 | 0.00 | 0.01 | 0.00 | 83 | 1015.1 |
| 20260506040057 | 43 | 147 | 0.9 | 7.0 | 0.00 | 0.01 | 0.00 | 84 | 1015.2 |
| 20260506034548 | 43 | 203 | 3.5 | 7.0 | 0.00 | 0.01 | 0.00 | 85 | 1015.2 |
| 20260506033042 | 43 | 25 | 0.9 | 4.3 | 0.00 | 0.01 | 0.00 | 84 | 1015.2 |
| 20260506031553 | 43 | 111 | 0.9 | 6.1 | 0.00 | 0.01 | 0.00 | 84 | 1015.2 |
| 20260506030039 | 42 | 121 | 1.7 | 6.1 | 0.00 | 0.01 | 0.00 | 84 | 1015.3 |
| 20260506024538 | 42 | 6 | 2.6 | 7.8 | 0.00 | 0.01 | 0.00 | 85 | 1015.2 |
| 20260506023036 | 43 | 321 | 2.6 | 7.0 | 0.00 | 0.01 | 0.00 | 85 | 1015.2 |
| 20260506021534 | 43 | 127 | 0.9 | 3.5 | 0.00 | 0.01 | 0.00 | 85 | 1015.2 |
| 20260506020032 | 43 | 354 | 0.9 | 6.1 | 0.00 | 0.01 | 0.00 | 84 | 1015.3 |
| 20260506014532 | 43 | 200 | 1.7 | 7.8 | 0.00 | 0.01 | 0.00 | 84 | 1015.4 |
| 20260506013028 | 43 | 309 | 2.6 | 7.0 | 0.00 | 0.01 | 0.00 | 85 | 1015.5 |
| 20260506011529 | 43 | 71 | 3.5 | 9.6 | 0.00 | 0.01 | 0.00 | 84 | 1015.5 |
| 20260506010026 | 43 | 314 | 2.6 | 8.7 | 0.00 | 0.01 | 0.00 | 83 | 1015.5 |
| 20260506004527 | 44 | 360 | 4.3 | 9.6 | 0.00 | 0.01 | 0.00 | 83 | 1015.5 |
| 20260506003021 | 43 | 6 | 3.5 | 7.8 | 0.00 | 0.01 | 0.00 | 86 | 1015.6 |
| 20260506001518 | 43 | 36 | 1.7 | 6.1 | 0.00 | 0.01 | 0.00 | 85 | 1015.7 |
| 20260506000018 | 43 | 1 | 0.9 | 4.3 | 0.00 | 0.01 | 0.00 | 85 | 1015.7 |
| 20260505234514 | 43 | 3 | 2.6 | 6.1 | 0.00 | 0.01 | 0.00 | 85 | 1015.8 |
| 20260505233010 | 43 | 39 | 3.5 | 7.0 | 0.00 | 0.01 | 0.00 | 85 | 1016.0 |
| 20260505231508 | 43 | 349 | 1.7 | 8.7 | 0.00 | 0.01 | 0.00 | 86 | 1016.1 |
| 20260505230004 | 44 | 1 | 1.7 | 8.7 | 0.00 | 0.01 | 0.00 | 85 | 1016.1 |
| 20260505224502 | 44 | 334 | 1.7 | 6.1 | 0.00 | 0.01 | 0.01 | 86 | 1016.1 |
| 20260505223002 | 44 | 334 | 2.6 | 8.7 | 0.00 | 0.01 | 0.01 | 86 | 1016.0 |
| 20260505221603 | 44 | 73 | 3.5 | 9.6 | 0.00 | 0.01 | 0.01 | 86 | 1016.2 |
| 20260505220058 | 44 | 320 | 2.6 | 7.0 | 0.00 | 0.01 | 0.01 | 85 | 1016.1 |
| 20260505214600 | 44 | 352 | 3.5 | 11.3 | 0.00 | 0.01 | 0.01 | 86 | 1016.2 |
| 20260505213059 | 44 | 141 | 2.6 | 7.8 | 0.00 | 0.01 | 0.01 | 85 | 1016.0 |
| 20260505211610 | 44 | 88 | 2.6 | 11.3 | 0.00 | 0.01 | 0.01 | 86 | 1016.2 |
| 20260505204600 | 44 | 335 | 3.5 | 10.4 | 0.00 | 0.01 | 0.01 | 85 | 1016.2 |
| 20260505203055 | 45 | 338 | 2.6 | 8.7 | 0.00 | 0.01 | 0.01 | 86 | 1016.2 |
| 20260505201557 | 44 | 82 | 3.5 | 12.2 | 0.00 | 0.01 | 0.01 | 85 | 1016.2 |
| 20260505200050 | 44 | 319 | 4.3 | 11.3 | 0.00 | 0.01 | 0.01 | 85 | 1016.1 |
| 20260505194605 | 45 | 79 | 2.6 | 8.7 | 0.00 | 0.01 | 0.01 | 85 | 1016.1 |
| 20260505193045 | 45 | 53 | 3.5 | 8.7 | 0.00 | 0.01 | 0.01 | 85 | 1015.9 |
| 20260505191544 | 45 | 29 | 4.3 | 12.2 | 0.00 | 0.01 | 0.01 | 84 | 1016.0 |
| 20260505190045 | 45 | 44 | 5.2 | 9.6 | 0.00 | 0.01 | 0.01 | 84 | 1016.0 |
| 20260505184540 | 45 | 291 | 4.3 | 7.8 | 0.00 | 0.01 | 0.01 | 84 | 1016.0 |
| 20260505183041 | 46 | 211 | 4.3 | 11.3 | 0.00 | 0.01 | 0.01 | 83 | 1015.9 |
| 20260505181542 | 47 | 129 | 2.6 | 11.3 | 0.00 | 0.01 | 0.01 | 81 | 1015.7 |
| 20260505180039 | 47 | 360 | 2.6 | 9.6 | 0.00 | 0.01 | 0.01 | 82 | 1015.7 |
| 20260505174540 | 48 | 18 | 5.2 | 13.0 | 0.00 | 0.01 | 0.01 | 83 | 1015.8 |
| 20260505173035 | 48 | 310 | 3.5 | 8.7 | 0.00 | 0.01 | 0.01 | 82 | 1015.7 |
| 20260505171534 | 48 | 27 | 5.2 | 12.2 | 0.00 | 0.01 | 0.01 | 83 | 1015.7 |
| 20260505170031 | 48 | 11 | 6.1 | 12.2 | 0.00 | 0.01 | 0.01 | 84 | 1015.6 |
| 20260505164528 | 48 | 319 | 3.5 | 12.2 | 0.00 | 0.01 | 0.01 | 84 | 1015.6 |
| 20260505163027 | 48 | 12 | 4.3 | 10.4 | 0.00 | 0.01 | 0.01 | 84 | 1015.7 |
| 20260505161528 | 49 | 336 | 3.5 | 12.2 | 0.00 | 0.01 | 0.01 | 84 | 1015.5 |
| 20260505153024 | 50 | 336 | 5.2 | 10.4 | 0.00 | 0.01 | 0.01 | 78 | 1015.4 |
| 20260505151524 | 50 | 1 | 3.5 | 13.0 | 0.00 | 0.01 | 0.01 | 79 | 1015.2 |
| 20260505123011 | 49 | 8 | 3.5 | 8.7 | 0.01 | 0.01 | 0.01 | 87 | 1014.8 |
| 20260505121512 | 50 | 307 | 2.6 | 10.4 | 0.00 | 0.00 | 0.00 | 86 | 1014.7 |
| 20260505120011 | 51 | 23 | 4.3 | 9.6 | 0.00 | 0.00 | 0.00 | 84 | 1014.6 |
| 20260505114508 | 52 | 29 | 5.2 | 11.3 | 0.00 | 0.00 | 0.00 | 81 | 1014.5 |
| 20260505113007 | 53 | 3 | 2.6 | 7.0 | 0.00 | 0.00 | 0.00 | 81 | 1014.4 |
| 20260505111512 | 52 | 325 | 4.3 | 10.4 | 0.00 | 0.00 | 0.00 | 80 | 1014.4 |
| 20260505101503 | 53 | 136 | 2.6 | 9.6 | 0.00 | 0.00 | 0.00 | 80 | 1014.4 |
| 20260505100003 | 52 | 9 | 2.6 | 7.8 | 0.00 | 0.00 | 0.00 | 79 | 1014.4 |